CAPE
1114 1691 2712 2973 2769 418 248 90 145 212 349 384 454 138 344 498 218 327 235 468 471 445 925 1646 2555 2303 1536 1831 2189 1679 967 881 839 858 812 869 1036 1154 1172 1122 911 937 1112 882 1257 1133 1129 1548 1330
2455 2485 3209 3207 1410 327 233 26 2 163 386 574 624 605 414 142 71 118 370 557 545 603 749 1227 2085 2342 1679 1848 1887 1375 919 895 838 1124 968 674 682 980 1120 1080 1057 949 1094 1220 1241 1408 1288 1303 1566
2775 2741 2857 183 369 379 268 90 13 171 304 353 583 838 518 80 10 193 436 557 556 651 753 1463 2108 2385 1971 1694 1460 1182 1055 1312 1267 1149 1193 1182 1257 545 932 961 986 567 1163 1316 1041 1213 1344 1360 1492
2547 2688 1984 114 244 256 238 236 9 2 9 232 516 785 162 98 134 316 448 509 551 661 1304 1900 2207 1673 1648 1638 1454 1296 1320 1056 966 973 1216 1234 1037 690 1216 1264 1234 1062 1204 1345 1282 1088 991 1137 1225
2695 2313 248 219 168 144 67 66 42 0 2 51 164 297 191 525 102 141 420 424 443 734 1128 1669 2448 1705 1545 1470 1368 1206 1092 1349 812 913 1226 1386 1269 1180 1040 1069 1189 1115 819 1148 1123 1360 1145 742 1074
2298 463 230 322 260 234 259 209 21 2 12 146 315 436 823 642 178 198 296 321 454 428 487 1101 1923 1804 1503 1354 1220 1195 1095 1244 1297 1374 1437 1339 1246 1249 1197 1204 792 512 1097 1266 1309 1216 1117 917 1004
1553 273 309 265 268 282 212 212 240 60 2 145 283 802 673 360 257 269 319 359 395 409 451 358 490 1237 1343 1316 1263 1307 1613 1132 1000 1249 1369 1386 1282 1297 1240 1037 1016 1211 1044 925 1065 870 1394 1088 841
987 491 330 386 176 465 396 237 171 164 68 0 214 663 619 464 402 363 322 391 340 597 528 710 757 750 1189 1102 1672 1719 1373 1677 1794 1448 1561 1193 944 1432 620 1155 1103 883 648 787 966 816 773 783 720
653 752 419 348 452 494 546 458 486 301 408 505 371 111 543 346 394 405 326 314 405 483 393 429 535 1288 1158 1071 1696 2001 1570 1303 1292 1258 1703 1367 1583 1377 1211 1018 405 820 1125 974 1029 1008 1087 891 790
594 353 371 460 501 670 644 685 703 443 554 684 292 472 523 352 402 372 483 496 372 441 386 640 770 973 1348 635 946 1112 1675 1638 1328 1351 1838 2610 1653 1730 1218 1137 651 958 1202 1154 933 1318 1447 1209 671
357 448 481 495 606 646 768 784 872 878 644 636 436 513 503 489 499 423 587 622 539 527 411 647 698 671 522 372 674 966 1278 1860 1652 2229 1819 1735 2175 1668 2120 1642 1712 2064 1726 1694 1470 1305 1594 1644 1425
294 252 394 596 609 689 764 836 805 861 566 581 482 442 426 519 448 326 395 538 688 693 639 675 934 924 429 633 641 684 929 1089 1396 1472 1687 1894 2074 1718 1590 2061 1742 2342 1906 1789 2037 1624 1656 1545 1779
280 246 410 534 605 605 671 764 848 910 536 633 433 313 325 302 266 161 175 359 620 714 635 631 828 1284 956 1099 583 646 971 1046 1368 1230 1565 2473 2277 2537 2205 2016 1551 1746 2199 2135 1858 1983 1439 1596 1657
169 363 432 579 577 560 783 843 1155 965 719 538 373 274 185 93 194 303 214 228 481 571 569 541 701 1117 1150 1379 1195 1151 1277 1400 1138 1470 2047 1942 2411 2298 2710 2191 3107 1930 2418 2706 2123 1809 1516 2022 1582
210 423 401 460 546 772 676 983 1089 1118 921 557 300 233 143 290 415 278 299 243 314 445 492 565 452 638 1141 1372 1602 1457 1316 1087 1438 1458 1828 2170 2394 2813 2420 2441 1654 1906 1878 2237 1932 477 528 206 122
318 388 265 374 289 659 564 1443 1042 1167 1167 791 491 382 347 547 483 398 292 243 158 150 438 524 248 609 1048 1164 1369 1198 1254 1046 1071 1102 1362 2261 2558 2836 2628 2072 2015 1764 1580 712 203 382 256 515 51
281 235 432 318 149 154 395 654 978 1055 1262 1099 879 707 564 696 739 816 778 752 374 211 311 485 420 805 1426 1458 1509 1482 1468 1745 1435 1259 1245 2689 2618 2762 2707 2644 2029 2220 938 415 186 221 354 50 123
285 347 188 153 85 4 266 439 788 961 1265 1418 1047 901 858 870 816 994 1040 1076 991 671 448 494 578 663 1322 1453 1826 1711 1469 1485 1394 1346 2277 2852 2392 2549 2538 2171 2112 2404 685 365 397 401 68 242 173
400 369 60 213 91 50 33 65 843 951 1124 1348 1400 1109 922 999 967 964 1011 1113 1271 1285 1116 741 939 1700 1358 1352 1622 1529 1304 1177 1188 1206 2701 2474 2259 2384 2614 2524 2015 1612 1062 423 321 177 197 85 48
216 229 322 202 164 62 73 136 261 1005 966 1067 1226 1396 1205 991 907 944 985 1077 1216 1474 1565 1715 1246 2004 1492 1497 1614 1495 1442 1273 1813 1551 2039 2468 2392 1864 2330 2775 1563 1600 659 334 123 0 0 0 0
120 319 343 419 262 30 59 118 283 462 849 808 896 1085 1337 1257 1036 887 1002 1078 1178 1457 1733 1870 2599 2630 2694 2983 1912 1901 2154 2461 1923 1719 1764 2111 2571 2336 2304 2387 2343 1224 537 160 64 20 24 0 0
138 161 166 336 233 267 60 106 189 601 416 654 824 873 944 1277 1295 1065 969 1010 1130 1314 1734 2024 2488 2900 2654 3305 2799 3864 2628 2288 1664 1910 2073 1963 2683 2288 2599 2422 1916 1057 238 180 95 0 59 454 0
77 44 324 317 401 273 199 114 117 75 67 280 713 719 735 896 1238 1163 1053 1071 1035 1159 1444 1921 2601 3569 4033 3499 3815 3041 3390 2002 1567 1810 3582 2406 2866 2515 2492 2312 1793 768 381 417 528 614 516 0 2
2 53 132 200 212 337 149 136 108 57 9 5 64 106 309 724 1029 1200 1083 981 905 833 1105 1562 2879 4204 4186 4193 3338 4358 4263 3498 2861 1886 2210 1767 3166 3765 2542 2064 1634 900 691 617 851 623 330 103 0
0 37 113 214 339 204 65 106 115 5 0 0 359 461 551 705 1054 1176 1206 1184 1068 760 865 1329 3207 4096 4263 3437 3353 3408 3872 3558 3116 2554 1990 2005 2010 2931 3269 2284 1673 957 826 819 952 630 224 0 0
0 2 84 165 150 140 41 44 0 0 0 320 880 922 1104 1047 1138 1166 1267 1358 1400 1106 971 1266 2816 3450 3204 3258 3744 4439 3742 2933 2797 3078 2125 1563 1537 1468 3342 2315 1627 949 910 984 942 491 13 0 0
0 0 0 7 53 98 12 4 2 210 484 613 941 1161 1315 1299 1276 1200 1287 1374 1441 1511 1440 1573 1984 3185 3263 3122 4309 4145 4107 4015 2833 3831 3269 1722 1914 1635 2682 2750 1823 1373 1004 1116 991 447 0 0 0
0 0 0 0 36 78 86 0 256 559 485 701 831 1043 1308 1473 1458 1313 1299 1436 1497 1521 1635 1686 1998 2692 3037 2810 3149 3225 3444 4309 4209 3766 3785 3591 2940 2173 2783 2304 1932 1453 1097 1085 1012 324 0 0 0
0 0 0 53 66 78 87 133 124 529 593 550 676 749 770 1049 1177 1227 1260 1306 1399 1594 1557 1492 1901 2291 2775 2685 3161 3555 3343 3139 3169 2708 3300 3250 2731 2950 2817 2287 1685 1527 1524 1255 758 118 1 0 0
0 0 0 10 27 20 7 257 245 516 536 608 544 649 697 724 780 888 1012 1171 1288 1563 1776 1919 2105 2001 2406 2586 3855 2896 3274 3828 2918 3016 2675 2916 3089 2965 2905 2230 1923 1445 1151 1067 657 53 0 0 0
CIN
-405 -269 -101 -57 -13 -1 0 -5 -1 -1 0 0 -1 -7 -9 -5 -6 -8 -37 -17 -13 -23 -2 0 0 0 0 0 0 0 -1 -1 -2 0 -2 -3 0 0 -5 -4 -5 -4 -4 -9 -3 0 -3 -1 -1
-115 -131 -68 -9 -42 0 -2 0 0 0 0 -1 -1 -1 0 -18 -41 -57 -13 -22 -8 -20 -12 0 0 0 0 0 0 0 0 -1 -4 0 0 0 -3 -1 0 0 -1 -4 -6 -1 -1 0 -5 -6 0
-155 -128 -6 0 0 0 0 -14 -28 -2 -1 0 0 -1 0 -22 -14 -21 -9 0 -3 -1 -33 -2 0 0 0 0 0 0 0 0 0 0 0 0 -2 -4 0 -1 0 -5 -1 0 0 0 0 0 0
-49 -22 -16 -1 0 -1 0 0 -48 -60 -24 -2 0 -10 -26 -16 -3 -8 -1 -1 0 0 0 0 0 0 0 0 0 0 0 0 -3 0 0 0 0 0 0 -1 0 0 0 -1 0 0 0 0 0
-49 -27 0 0 0 0 -9 -9 -40 0 -102 -23 -7 -25 -45 -2 -34 -26 0 0 0 0 0 0 0 0 0 0 0 0 0 0 -1 -1 0 -1 0 -1 0 0 0 -2 0 0 0 0 0 -1 0
-11 0 -1 0 0 0 0 -1 -24 -33 -78 -30 -35 -18 -1 -10 -36 -12 0 0 0 0 -2 -10 0 0 0 0 0 -4 -1 0 0 0 0 0 0 0 0 0 -1 -2 0 0 0 0 -1 0 0
-2 0 0 -4 -1 0 -1 -1 0 -18 -8 -18 -18 -3 -11 -27 -24 -8 0 -2 0 0 -1 -33 -21 -1 -1 -1 -4 -2 0 0 -1 0 0 0 -2 0 0 -1 0 0 0 0 0 0 0 0 0
-2 -1 -1 -1 -10 0 -3 -5 -1 -2 -35 -4 -10 -22 -15 -33 -20 -3 0 0 0 0 -2 -2 -9 -15 0 -1 0 0 0 0 0 -1 0 -8 -16 -5 -16 -4 -1 -5 -3 -1 0 -3 -1 -1 -12
-18 -5 -1 -2 -1 0 -3 -1 -19 -23 -7 -1 -15 -69 -28 -48 -27 -8 -3 -2 -4 -1 -3 -5 -9 0 -1 0 -2 0 -2 -9 -7 -11 -11 -12 -17 -5 -7 -6 -18 -11 -3 -6 -1 0 0 -9 -19
-3 -2 -3 -2 0 0 0 -1 -3 -4 -7 -13 -15 -31 -43 -63 -30 -12 -1 0 -6 -6 -2 0 0 0 -1 0 -18 -1 -7 -3 -1 0 -7 -18 -4 -1 -11 -6 -27 -25 -14 -6 -5 -1 -1 -11 -11
-2 -1 -2 0 -2 -1 0 -1 0 -2 -1 -6 -37 -45 -59 -56 -34 -17 0 0 0 -2 -1 0 -1 -1 0 0 -1 0 -4 -8 -1 -2 -2 -2 -2 -1 -8 -8 -4 -45 -28 -15 -12 -18 -1 -4 -21
-2 -8 -1 -2 -2 0 0 -2 -1 -9 -13 -29 -63 -79 -68 -50 -36 -22 -9 -2 -1 -1 -1 0 0 0 -2 0 0 -1 0 0 -14 -2 -1 -1 -4 -4 0 -32 -2 -4 -31 -18 -1 -37 -1 -9 -2
-2 -6 0 0 -2 -1 -13 -7 -12 -17 -27 -46 -84 -114 -98 -73 -56 -33 -17 -4 -4 -7 -3 0 -1 -4 -12 -2 0 -1 -1 -1 -2 0 -1 -2 -6 -3 -3 -1 -1 -1 -7 -4 -6 -14 -13 0 0
-14 -1 -1 0 0 -5 -1 -6 -9 -26 -40 -74 -109 -121 -123 -105 -63 -31 -29 -30 -17 -20 -13 -6 -11 -20 -13 0 -1 -1 0 -1 -1 -1 -23 -6 -2 -1 -14 0 -20 -3 -13 -7 -1 0 0 -4 -7
-12 -3 -1 0 0 -1 -1 -37 -1 -34 -49 -72 -91 -105 -100 -90 -57 -57 -37 -48 -55 -38 -28 -7 -34 -34 -11 -3 0 0 -1 -1 -1 -1 -5 -2 -1 -1 -1 0 0 -1 -1 -5 -1 -1 -1 -3 -6
-2 -1 -19 -1 -20 -4 -15 -21 -25 -28 -38 -51 -87 -100 -91 -80 -72 -77 -61 -46 -77 -67 -41 -27 -49 -15 -22 -1 -2 0 0 0 0 -1 0 -4 0 0 -1 -1 -6 -1 0 -1 -2 -1 -11 -15 -3
0 -154 -58 0 -76 -61 -4 0 -18 -36 -29 -32 -52 -73 -87 -70 -45 -32 -21 -6 -46 -67 -68 -50 -40 0 -1 -3 -1 -2 -1 -1 0 0 -1 -3 0 0 0 -4 -1 -3 -1 0 -5 -2 -1 -20 -13
-15 -10 -6 -32 -58 -98 -1 -2 -9 -21 -16 -24 -47 -59 -71 -65 -37 -20 -4 0 -1 -32 -65 -55 -35 -17 -1 -1 -5 0 0 0 -1 -1 -2 -6 0 0 0 -2 -1 -2 0 -1 0 -4 -23 -2 -2
-1 -2 -172 -7 -41 -52 -28 -3 0 -9 -15 -14 -15 -45 -58 -55 -36 -22 -15 -1 0 -1 -24 -49 -23 -8 -18 -18 -7 -1 0 -1 0 0 -6 0 -1 -2 0 -10 -2 -2 -4 -9 -4 -9 -12 -9 -8
-2 -1 0 -2 -13 -32 -16 -5 -1 -9 -20 -10 -12 -4 -38 -54 -41 -46 -36 -11 0 0 -9 -20 -26 -13 -28 -6 -1 -1 0 -1 -1 -1 -1 0 -1 -7 0 -1 -1 -9 -1 -8 -47 0 0 0 0
-22 0 0 -3 -1 -25 -12 -2 -2 -1 -14 -19 -17 -16 -7 -39 -55 -49 -45 -19 -7 0 -1 -20 -20 -18 -16 0 -1 0 -1 -2 -1 0 0 0 0 0 0 0 -1 -7 -7 -14 -40 -27 -31 0 0
-18 -4 -1 -1 -4 -1 -3 -1 -1 0 -9 -7 -13 -15 -19 -31 -41 -26 -32 -32 -19 -8 -1 -11 -21 -13 -24 -6 0 0 0 0 -11 0 -1 0 -1 0 0 0 0 -14 -15 -33 -43 0 -30 -14 0
-36 -23 -1 0 0 0 -1 0 -2 -3 -11 -1 -2 -4 -18 -23 -42 -39 -13 -21 -23 -19 -6 -12 -22 -6 0 -8 -5 0 0 -1 -1 -2 -8 -4 0 0 0 0 0 -24 -13 -39 -19 -4 -17 0 -2
-74 -43 -32 -11 -1 0 -1 0 0 -7 -1 -1 -25 -33 -19 -25 -31 -40 -19 -4 -41 -51 -42 -24 -17 -10 -4 -1 -16 -1 0 -1 -15 -1 -3 -5 -1 -2 -1 0 -1 -23 -16 -18 -4 -3 -14 -55 0
0 -50 -8 -2 0 0 0 -1 0 -2 0 0 -10 -15 -26 -25 -32 -33 -24 -4 -23 -47 -65 -52 -11 -25 -17 -25 -16 -17 -1 0 -1 0 0 -11 -14 -3 -4 0 0 -8 -17 -12 -1 -6 -30 0 0
0 -10 -8 0 0 -1 -21 -1 0 0 0 -9 -11 -12 -20 -25 -27 -12 -17 -12 -10 -32 -54 -59 -12 -39 -51 -50 -23 -3 -11 -5 0 0 -3 -11 -17 -4 -4 0 0 -1 -4 -2 0 -5 -92 0 0
0 0 0 0 0 0 -4 -1 -2 -2 -1 -2 -7 -10 -18 -25 -27 -19 -1 -11 -5 -29 -37 -52 -39 -37 -50 -47 -20 -14 -9 -8 -1 -1 -1 -4 0 0 -1 -1 -5 -2 0 0 -1 -1 0 0 0
0 0 0 0 0 -2 0 0 -1 -1 -6 -2 0 -2 -13 -21 -19 -10 -6 0 0 -2 -19 -45 -48 -49 -40 -30 -38 -36 -35 -11 -1 -1 0 0 0 0 0 -1 -6 -10 0 0 0 -30 0 0 0
0 0 -1 0 0 0 -1 0 -6 -14 -4 -2 -7 -1 -1 -1 -9 -9 -15 -18 -10 -10 -9 -20 -33 -51 -51 -28 -25 -25 -32 -34 -20 -8 0 0 0 0 0 -1 -4 -2 0 0 0 -27 -39 0 0
0 0 0 -1 -6 0 -1 0 0 -14 -10 -8 -12 -11 -13 -11 -7 -11 -17 -28 -35 -27 -22 -11 -25 -40 -41 -26 -13 -43 -37 -11 -27 -12 -3 0 0 0 0 -1 0 0 0 0 -3 -94 0 0 0
Wind_Speed
11 12 7 5 6 7 12 13 12 11 12 17 7 15 16 16 11 13 19 17 18 18 15 15 14 16 15 14 15 14 13 12 10 11 10 10 9 9 9 7 8 8 8 9 8 8 9 10 9
6 5 8 6 3 11 14 15 14 11 12 12 10 11 19 16 17 21 20 20 19 16 15 17 14 15 15 14 14 13 11 10 8 8 9 8 8 7 7 7 7 7 7 9 7 9 10 10 8
15 8 9 6 11 13 14 14 12 11 9 7 6 16 11 18 18 17 22 23 22 18 16 16 15 15 14 14 13 12 9 7 8 9 7 7 7 6 8 7 7 6 7 8 9 9 10 10 9
6 6 7 13 15 17 15 10 12 11 9 5 13 15 16 16 12 21 21 20 21 21 21 15 15 15 14 13 12 9 9 7 6 5 7 7 5 7 9 8 6 8 6 7 8 9 9 9 9
10 7 12 15 16 16 15 8 10 12 9 9 17 21 20 12 20 20 16 15 16 20 19 16 13 13 12 11 10 9 7 6 5 4 7 7 6 7 7 7 8 7 7 7 7 8 9 8 8
7 4 13 13 14 15 13 6 13 13 13 16 22 19 14 14 20 17 16 16 16 18 18 16 13 12 11 10 9 8 5 6 5 6 7 8 6 7 7 6 6 6 6 7 7 9 6 7 6
14 6 13 14 16 13 10 10 14 11 13 18 16 16 14 16 18 16 14 14 15 19 17 14 14 12 9 8 7 6 8 6 5 5 4 6 6 5 5 6 5 5 5 5 6 6 7 7 6
7 2 12 12 14 13 7 10 11 13 14 8 12 10 18 19 18 16 14 14 13 15 14 13 12 12 11 12 9 9 7 5 6 5 4 5 6 7 7 6 6 4 4 3 4 5 6 6 7
6 3 10 15 15 11 7 10 12 12 9 6 3 18 19 21 18 16 14 13 10 10 12 14 11 14 8 12 11 10 8 7 7 8 9 7 5 7 9 9 8 5 5 5 5 6 7 8 10
6 9 13 11 15 12 8 8 10 9 8 8 10 23 21 21 17 17 16 15 15 12 12 13 15 15 13 6 11 10 8 6 7 7 5 4 2 1 7 6 9 8 8 7 7 8 10 10 1
5 10 6 12 9 11 10 11 6 10 9 11 14 20 22 21 18 16 14 15 14 13 11 11 9 10 8 7 7 5 5 7 7 6 6 7 4 5 3 3 5 5 9 4 8 8 9 8 6
3 7 4 8 3 8 6 8 9 11 8 14 17 20 20 20 18 17 15 15 15 13 10 8 9 8 6 6 7 5 5 6 4 8 7 4 3 3 2 3 3 2 4 7 4 4 4 6 4
6 5 6 7 5 9 6 6 9 10 12 15 18 19 19 18 18 16 14 15 14 13 12 10 10 8 5 4 4 5 5 4 7 6 6 1 0 1 3 3 4 2 2 2 2 3 3 2 6
6 7 7 8 7 6 4 7 5 12 13 16 18 18 17 18 17 14 14 14 13 13 13 13 11 10 8 7 3 2 4 4 3 5 6 5 2 3 4 1 4 3 3 5 4 5 3 5 3
5 12 11 9 6 5 3 19 4 14 14 16 16 16 17 16 16 15 14 14 14 12 14 13 12 13 9 8 7 6 6 6 4 5 4 4 4 2 1 3 4 1 0 3 5 3 4 6 4
12 13 3 3 1 7 10 20 12 14 14 15 16 15 15 16 16 15 15 14 15 14 14 11 11 14 11 9 7 6 6 3 4 3 5 7 6 5 4 4 4 4 4 2 2 2 4 2 4
12 14 17 11 6 6 3 6 12 11 13 14 15 15 15 16 17 16 17 15 16 13 13 12 11 12 13 9 7 7 5 5 5 5 4 8 4 5 5 6 5 3 2 3 1 4 1 1 4
8 10 6 4 7 6 6 4 11 12 14 14 15 16 16 16 17 18 17 16 17 14 14 13 12 10 9 9 7 6 6 7 6 5 2 5 4 4 4 2 1 6 4 2 6 2 5 3 3
11 8 17 11 6 11 7 6 16 11 13 14 16 16 17 17 17 18 17 16 16 16 14 14 13 11 10 9 9 8 8 6 6 5 7 1 4 1 4 1 5 6 2 5 3 4 5 2 2
8 16 8 7 7 8 9 11 8 15 12 13 14 17 16 18 18 19 20 18 17 16 16 15 14 12 11 9 8 8 7 5 4 4 4 4 1 5 6 6 1 4 3 2 4 4 5 2 3
14 18 13 6 3 13 9 16 3 13 14 12 13 14 18 18 19 21 22 20 19 18 17 16 15 13 12 11 8 6 3 4 4 5 5 6 5 4 4 3 3 3 5 6 3 3 4 4 2
19 16 15 3 7 11 4 8 9 17 11 16 14 15 16 19 19 19 21 21 20 19 17 16 16 14 13 12 9 8 8 8 6 6 5 5 6 5 4 5 2 2 3 3 3 4 4 6 3
18 17 8 6 13 15 15 9 4 7 5 8 13 15 15 18 20 19 21 21 20 19 18 17 16 15 14 14 13 10 10 8 5 2 8 2 5 5 7 6 4 3 4 4 3 2 5 1 5
18 17 9 13 14 14 14 13 2 2 4 5 6 8 10 16 20 21 18 20 18 18 17 17 16 15 15 13 15 12 9 10 3 5 5 4 3 1 5 6 5 4 4 4 4 2 4 5 5
17 15 11 13 15 11 15 3 8 12 6 9 4 1 4 13 19 20 19 17 18 18 18 16 15 14 15 15 15 15 12 10 8 4 6 5 5 4 6 6 5 5 4 4 4 2 3 4 4
13 17 13 11 12 12 6 3 3 7 3 8 4 4 6 10 15 18 20 17 17 17 17 16 16 15 16 16 15 12 13 10 10 10 4 7 7 7 10 8 6 4 5 4 3 4 2 3 3
16 16 21 21 18 7 6 11 6 10 9 7 9 9 10 9 11 15 19 18 18 17 17 17 15 15 16 17 13 13 12 13 10 7 8 8 7 6 9 8 6 7 6 5 4 4 2 3 2
15 8 14 6 6 4 6 2 10 13 5 6 11 11 11 10 9 12 14 17 16 18 18 18 17 17 17 17 15 13 14 12 9 9 9 9 8 6 10 8 6 6 7 5 4 4 3 2 2
9 10 8 11 4 6 7 10 16 10 6 8 6 6 10 13 10 10 9 9 13 15 18 18 17 18 17 17 16 14 13 13 12 11 10 9 8 8 10 11 9 7 7 6 4 5 4 3 4
16 12 13 7 12 6 11 10 13 12 9 7 9 8 8 2 5 5 7 8 9 13 15 17 16 17 16 16 13 15 13 11 14 12 12 11 10 11 11 11 11 10 8 8 6 6 7 5 5
Wind_Direction
191 208 239 260 262 109 80 80 100 127 82 73 58 60 62 17 22 90 139 126 138 129 130 126 121 123 125 119 109 111 112 108 110 98 102 97 99 101 104 85 93 116 111 112 134 147 148 134 132
204 231 231 255 251 82 77 65 61 55 87 94 76 88 73 73 94 124 123 138 138 133 146 132 128 128 129 124 123 118 120 118 107 99 97 107 109 101 102 105 108 103 107 110 111 122 120 121 127
257 278 275 31 39 57 77 71 81 83 106 91 96 45 42 104 112 119 127 147 147 146 130 118 130 126 131 129 126 130 121 117 102 101 109 108 109 106 98 101 103 104 112 114 115 115 119 117 120
250 214 239 60 52 82 85 88 108 111 98 49 106 95 105 105 108 121 141 149 141 144 122 133 132 134 129 134 130 129 127 118 105 114 116 91 102 104 92 95 109 109 112 109 114 123 117 116 121
235 250 85 72 58 75 68 63 87 83 85 107 104 108 111 103 117 133 141 143 138 119 123 136 131 134 141 134 135 135 131 129 133 146 101 107 113 84 89 102 104 91 110 112 114 115 120 123 124
292 256 78 70 77 73 81 73 87 82 86 88 104 124 104 125 133 140 152 139 141 122 139 134 138 143 144 140 147 131 145 157 149 115 112 122 113 108 110 109 99 117 120 111 112 119 127 129 129
261 45 72 89 80 74 65 61 72 96 115 119 133 112 122 142 141 145 155 149 125 135 124 141 151 147 145 154 142 154 170 161 137 126 125 137 128 125 134 130 123 127 129 134 127 131 133 144 151
302 273 78 63 76 80 88 78 76 82 86 122 137 132 152 144 153 153 153 144 148 129 134 145 142 158 169 156 161 169 163 156 143 141 167 178 165 170 174 158 162 148 149 158 165 162 163 169 181
9 239 67 67 78 102 126 98 69 98 135 86 106 142 140 145 157 154 153 149 148 140 156 155 156 150 180 150 147 170 172 163 182 174 197 208 213 195 154 151 166 169 179 204 212 201 193 198 207
354 59 71 8 86 97 114 86 110 127 119 119 112 109 141 155 161 159 168 150 161 162 176 168 171 147 169 169 143 194 158 197 182 137 204 180 168 353 140 162 171 190 201 215 209 214 216 221 181
56 74 57 77 23 92 105 113 129 168 131 136 137 142 153 160 167 167 174 159 160 165 189 164 152 140 152 128 173 182 142 198 145 184 200 151 187 201 177 219 192 200 201 194 199 212 219 207 158
190 93 24 94 105 112 94 122 117 60 54 118 141 151 159 165 172 171 172 161 152 176 173 168 134 134 164 145 206 177 149 172 169 140 203 154 206 215 223 203 205 322 210 197 231 178 238 212 164
301 92 124 111 154 120 141 127 103 99 103 121 141 157 164 172 172 170 171 159 158 170 170 172 150 157 179 210 194 169 136 223 166 164 173 139 237 202 309 39 313 323 334 288 294 51 59 244 224
3 265 121 182 118 139 162 125 192 122 127 135 152 163 170 174 175 164 171 159 170 174 168 165 174 164 184 207 185 172 241 132 209 155 133 195 303 267 73 355 239 213 331 27 351 20 307 237 220
264 244 176 170 159 140 286 352 158 137 139 147 163 171 172 175 173 168 171 168 173 181 161 163 185 162 192 197 184 225 185 174 190 167 152 236 249 119 288 265 300 42 71 257 192 251 191 256 258
252 259 356 109 119 114 268 157 119 149 158 160 170 178 176 174 171 172 172 175 167 178 159 177 189 164 179 184 184 210 239 227 213 208 207 185 232 255 238 244 238 65 256 280 246 110 323 264 348
204 89 265 134 63 339 265 71 121 163 175 171 179 178 180 181 175 169 167 175 157 173 168 186 186 185 164 171 201 236 178 250 228 226 232 141 214 233 258 262 89 230 303 292 43 295 79 315 257
8 134 213 58 75 323 257 123 145 181 189 183 185 180 184 188 187 173 173 176 159 162 168 187 180 190 175 168 211 214 226 236 238 233 207 107 216 214 253 246 72 263 220 314 19 355 12 307 26
289 299 282 121 86 305 332 312 150 176 195 195 188 185 192 196 188 180 188 180 172 165 170 181 188 178 183 194 197 209 216 212 237 251 86 276 259 163 249 299 191 251 347 15 335 289 168 351 58
242 273 246 171 121 266 306 301 168 162 201 212 202 184 198 191 196 193 189 188 188 180 176 181 191 182 199 197 211 218 220 216 220 221 154 230 105 221 255 295 320 46 57 39 7 346 308 188 45
237 249 268 337 89 278 255 262 136 162 183 210 210 208 187 199 197 191 193 197 190 187 187 186 189 185 199 225 201 206 260 270 207 237 218 204 220 220 242 233 348 82 286 94 326 18 358 342 128
241 232 272 281 267 279 31 301 254 148 198 189 197 206 203 190 196 196 193 195 194 191 188 190 190 191 196 207 209 204 213 222 219 204 184 158 195 222 189 201 157 236 21 71 141 81 348 316 17
245 261 298 265 254 262 242 253 268 208 234 133 183 190 208 192 195 201 192 187 197 190 189 188 189 193 201 197 229 193 224 232 237 215 105 217 172 216 213 166 160 175 220 96 74 38 2 35 327
247 240 251 262 254 262 268 237 199 102 37 16 135 176 206 195 192 189 200 181 193 186 187 186 185 188 195 199 204 233 210 244 282 187 134 178 157 176 246 170 172 165 113 148 138 72 47 19 11
233 231 237 229 231 240 250 116 322 332 344 50 336 132 184 189 188 187 194 189 181 185 188 184 180 184 190 201 205 209 217 220 236 196 195 175 186 208 199 178 179 175 181 146 122 94 73 39 24
223 238 237 228 253 264 50 189 359 43 296 84 123 116 139 173 180 187 183 198 180 188 187 192 179 187 191 196 204 201 206 211 215 195 187 193 203 201 143 176 174 173 169 159 129 168 74 63 65
193 222 242 263 280 259 315 80 170 81 50 109 109 122 127 148 162 185 184 191 188 187 191 194 192 192 196 193 193 197 200 219 204 200 189 203 208 190 159 170 162 162 184 158 147 94 128 132 109
275 221 222 239 281 325 122 226 101 84 60 109 132 124 127 138 158 173 190 194 194 188 192 195 191 191 199 196 191 196 199 203 209 196 194 219 186 192 163 168 159 160 175 163 214 152 135 132 149
195 237 252 282 342 314 244 98 103 112 84 83 101 126 139 148 170 161 176 199 194 202 197 195 192 191 198 200 188 196 199 199 204 204 197 217 188 188 173 180 175 167 164 159 189 59 119 155 110
208 217 227 215 206 227 316 103 102 103 102 81 89 58 65 38 133 156 169 178 213 200 210 197 196 199 203 197 185 193 195 196 195 206 197 199 187 191 181 180 179 177 175 164 167 188 130 160 143